contact:dominique.lefevre@mio.osupytheas.fr, maurice.libes@osupytheas.fr
Project:EMSO Ligure-ouest http://www.emso-fr.org/EMSO-France
Sensor Aquadopp, line 13 Serial AQD14315 
DOI : "https://doi.org/10.17882/74513; https://doi.org/10.17882/83244" 
Title:EMSO Ligure Ouest : Data ligne ALBATROSS capteur AQUADOPP - deploiement 2021
Id,Date,Profondeur,Latitude,Longitude,X_East,Y_North,Z_Up,Amplitude_X,Amplitude_Y,Amplitude_Z,Batterie,SoundSpeed,Heading,Pitch,Roll,Pressure,Temperature,Speed,Direction
, , m, degrees North, degrees East, m.s-1, m.s-1,m.s-1, 1, 1, 1, Volt, m.s-1, degree, degree, degree, dbar, degree_C, m.s-1, degree
07,2022-06-28T23:30:00,1500.0,42.79,6.0312,-0.008,-0.019,0.002,55.0,57.0,56.0,13.5,1504.1,56.1,0.1,0.8,1475.303,13.13,0.02,202.8
07,2022-06-29T00:00:00,1500.0,42.79,6.0312,0.0,-0.028,0.003,57.0,55.0,56.0,13.5,1504.1,51.4,0.0,0.9,1475.301,13.13,0.028,180.0
07,2022-06-29T00:30:00,1500.0,42.79,6.0312,-0.006,-0.019,0.005,54.0,57.0,55.0,13.5,1504.1,42.7,0.0,0.8,1475.284,13.13,0.019,197.5
07,2022-06-29T01:00:00,1500.0,42.79,6.0312,0.0,-0.021,0.0,54.0,56.0,58.0,13.5,1504.1,39.3,0.0,0.7,1475.283,13.13,0.021,180.0
07,2022-06-29T01:30:00,1500.0,42.79,6.0312,0.0,-0.016,-0.007,55.0,55.0,57.0,13.5,1504.1,38.9,0.2,0.9,1475.231,13.13,0.016,180.0
07,2022-06-29T02:00:00,1500.0,42.79,6.0312,-0.003,-0.01,0.0,54.0,58.0,53.0,13.5,1504.1,37.2,0.3,1.0,1475.254,13.13,0.01,196.7
07,2022-06-29T02:30:00,1500.0,42.79,6.0312,0.004,-0.016,-0.015,54.0,55.0,53.0,13.5,1504.1,30.4,0.0,1.0,1475.228,13.13,0.016,166.0
07,2022-06-29T03:00:00,1500.0,42.79,6.0312,-0.006,-0.016,0.001,53.0,57.0,55.0,13.5,1504.1,27.0,-0.1,1.0,1475.258,13.13,0.017,200.6
07,2022-06-29T03:30:00,1500.0,42.79,6.0312,0.0,-0.005,0.0,54.0,54.0,56.0,13.5,1504.1,25.4,0.2,0.9,1475.25,13.13,0.005,180.0
07,2022-06-29T04:00:00,1500.0,42.79,6.0312,0.013,-0.016,-0.008,53.0,55.0,55.0,13.5,1504.1,23.5,0.3,0.8,1475.239,13.13,0.02,140.9
07,2022-06-29T04:30:00,1500.0,42.79,6.0312,0.011,-0.005,0.011,53.0,54.0,54.0,13.5,1504.1,24.9,0.2,0.9,1475.251,13.13,0.012,114.4
07,2022-06-29T05:00:00,1500.0,42.79,6.0312,0.009,-0.014,0.007,54.0,55.0,55.0,13.5,1504.1,22.1,0.0,0.9,1475.299,13.13,0.016,147.3
07,2022-06-29T05:30:00,1500.0,42.79,6.0312,0.005,-0.013,0.001,55.0,58.0,57.0,13.5,1504.2,19.3,0.2,0.8,1475.274,13.14,0.013,159.0
07,2022-06-29T06:00:00,1500.0,42.79,6.0312,0.019,-0.012,-0.022,56.0,58.0,57.0,13.5,1504.2,21.6,0.3,1.0,1475.298,13.14,0.022,122.3
07,2022-06-29T06:30:00,1500.0,42.79,6.0312,0.012,-0.019,0.005,55.0,57.0,57.0,13.5,1504.2,28.1,0.3,1.0,1475.282,13.14,0.022,147.7
07,2022-06-29T07:00:00,1500.0,42.79,6.0312,0.007,-0.02,-0.006,55.0,56.0,55.0,13.5,1504.2,23.9,0.3,1.0,1475.26,13.14,0.021,160.7
07,2022-06-29T07:30:00,1500.0,42.79,6.0312,0.013,-0.018,0.0,55.0,56.0,55.0,13.5,1504.2,25.9,0.3,0.7,1475.323,13.14,0.022,144.2
07,2022-06-29T08:00:00,1500.0,42.79,6.0312,0.008,-0.018,-0.003,54.0,57.0,57.0,13.5,1504.2,23.9,0.1,0.8,1475.305,13.14,0.019,156.0
07,2022-06-29T08:30:00,1500.0,42.79,6.0312,0.008,-0.034,0.016,54.0,57.0,57.0,13.5,1504.2,30.9,0.1,1.0,1475.287,13.14,0.034,166.8
07,2022-06-29T09:00:00,1500.0,42.79,6.0312,0.013,-0.029,0.013,56.0,56.0,55.0,13.5,1504.2,28.4,0.2,0.7,1475.257,13.14,0.031,155.9
07,2022-06-29T09:30:00,1500.0,42.79,6.0312,-0.001,-0.024,-0.006,54.0,56.0,57.0,13.5,1504.2,33.2,0.0,0.7,1475.252,13.14,0.024,182.4
07,2022-06-29T10:00:00,1500.0,42.79,6.0312,0.009,-0.029,0.004,53.0,59.0,56.0,13.5,1504.2,37.5,0.2,0.7,1475.217,13.14,0.03,162.8
07,2022-06-29T10:30:00,1500.0,42.79,6.0312,-0.002,-0.029,-0.012,52.0,53.0,55.0,13.5,1504.2,36.0,0.2,0.8,1475.213,13.14,0.029,183.9
07,2022-06-29T11:00:00,1500.0,42.79,6.0312,-0.001,-0.036,0.002,55.0,55.0,56.0,13.5,1504.2,35.5,0.2,0.7,1475.205,13.14,0.036,181.6
07,2022-06-29T11:30:00,1500.0,42.79,6.0312,-0.003,-0.024,0.007,54.0,58.0,56.0,13.5,1504.2,38.3,-0.1,0.8,1475.189,13.14,0.024,187.1
07,2022-06-29T12:00:00,1500.0,42.79,6.0312,0.008,-0.029,-0.003,55.0,55.0,57.0,13.5,1504.2,37.1,0.2,1.0,1475.161,13.14,0.03,164.6
07,2022-06-29T12:30:00,1500.0,42.79,6.0312,0.009,-0.024,0.016,57.0,58.0,56.0,13.5,1504.2,40.8,0.2,1.0,1475.14,13.14,0.025,159.4
07,2022-06-29T13:00:00,1500.0,42.79,6.0312,0.0,-0.027,0.008,54.0,60.0,56.0,13.5,1504.2,47.6,0.2,0.9,1475.124,13.14,0.026,180.0
07,2022-06-29T13:30:00,1500.0,42.79,6.0312,-0.004,-0.023,0.008,58.0,56.0,58.0,13.5,1504.2,52.0,0.0,0.8,1475.17,13.14,0.023,189.9
07,2022-06-29T14:00:00,1500.0,42.79,6.0312,0.0,-0.028,0.002,58.0,56.0,57.0,13.5,1504.1,51.1,-0.1,0.7,1475.153,13.13,0.028,180.0
07,2022-06-29T14:30:00,1500.0,42.79,6.0312,-0.012,-0.016,0.007,56.0,57.0,57.0,13.5,1504.1,50.9,0.0,0.8,1475.134,13.13,0.02,216.9
07,2022-06-29T15:00:00,1500.0,42.79,6.0312,0.0,-0.026,0.006,55.0,55.0,55.0,13.5,1504.2,53.2,-0.2,1.0,1475.141,13.14,0.026,180.0
07,2022-06-29T15:30:00,1500.0,42.79,6.0312,0.002,-0.032,-0.005,54.0,56.0,56.0,13.5,1504.2,52.6,0.2,1.0,1475.185,13.14,0.032,176.4
07,2022-06-29T16:00:00,1500.0,42.79,6.0312,-0.014,-0.023,-0.008,57.0,59.0,57.0,13.5,1504.2,69.2,0.3,1.0,1475.225,13.14,0.026,211.3
07,2022-06-29T16:30:00,1500.0,42.79,6.0312,0.003,-0.029,-0.009,55.0,54.0,58.0,13.5,1504.2,71.5,0.0,1.1,1475.261,13.14,0.029,174.1
07,2022-06-29T17:00:00,1500.0,42.79,6.0312,-0.017,-0.022,0.0,57.0,57.0,56.0,13.5,1504.2,80.0,0.1,0.7,1475.276,13.14,0.027,217.7
07,2022-06-29T17:30:00,1500.0,42.79,6.0312,0.0,-0.011,-0.002,56.0,58.0,57.0,13.5,1504.2,90.4,0.1,0.9,1475.318,13.14,0.011,180.0
07,2022-06-29T18:00:00,1500.0,42.79,6.0312,-0.003,-0.015,0.024,56.0,59.0,57.0,13.5,1504.2,90.9,0.0,1.1,1475.282,13.14,0.015,191.3
07,2022-06-29T18:30:00,1500.0,42.79,6.0312,0.001,-0.023,-0.003,57.0,58.0,57.0,13.5,1504.2,75.0,0.0,0.8,1475.349,13.14,0.023,177.5
07,2022-06-29T19:00:00,1500.0,42.79,6.0312,0.003,-0.022,0.0,56.0,56.0,56.0,13.5,1504.2,79.1,0.0,0.9,1475.349,13.14,0.022,172.2
07,2022-06-29T19:30:00,1500.0,42.79,6.0312,-0.009,-0.026,0.003,56.0,59.0,58.0,13.5,1504.1,66.1,0.5,0.7,1475.383,13.13,0.027,199.1
07,2022-06-29T20:00:00,1500.0,42.79,6.0312,0.0,-0.018,-0.004,61.0,57.0,59.0,13.5,1504.1,60.7,-0.3,1.0,1475.41,13.13,0.018,180.0
07,2022-06-29T20:30:00,1500.0,42.79,6.0312,-0.002,-0.018,-0.002,57.0,58.0,57.0,13.5,1504.1,56.2,0.0,1.1,1475.41,13.13,0.018,186.3
07,2022-06-29T21:00:00,1500.0,42.79,6.0312,0.007,-0.021,0.003,55.0,58.0,58.0,13.5,1504.2,47.1,-0.1,0.9,1475.369,13.14,0.022,161.6
07,2022-06-29T21:30:00,1500.0,42.79,6.0312,0.008,-0.014,0.005,56.0,57.0,58.0,13.5,1504.2,45.4,0.2,0.8,1475.37,13.14,0.016,150.3
07,2022-06-29T22:00:00,1500.0,42.79,6.0312,-0.001,-0.023,-0.012,60.0,56.0,57.0,13.5,1504.2,40.8,0.0,0.7,1475.345,13.14,0.023,182.5
07,2022-06-29T22:30:00,1500.0,42.79,6.0312,0.003,-0.026,-0.01,56.0,57.0,59.0,13.5,1504.2,35.3,0.2,0.7,1475.332,13.14,0.026,173.4
07,2022-06-29T23:00:00,1500.0,42.79,6.0312,-0.011,-0.027,0.0,57.0,57.0,57.0,13.5,1504.2,30.2,-0.1,0.8,1475.304,13.14,0.029,202.2
